COSMOS 1275 DEB, 14740

Orbit data source: Space-Track

COSMOS 1275 DEB, 14740 is space debris in LEO originally from a launch on Thu, 04 Jun 1981 UTC launched from the Plesetsk Missile And Space Complex (PKMTR). Debris objects in space refer to the collection of defunct objects orbiting the Earth. Examples of debris include non-operational satellites, rocket bodies, and fragments generated from explosions, collisions, or faulty payload assembly.

Loading next visibility...
Identifier
14740, 1981-053JV
Orbit
LEO
Country
Flag of CISCIS
Related business
Manufacturer
Unknown
Mission
Spacecraft
Bus & Motor
Unknown
Mass
Unknown
Launch date (UTC)
1981-06-04 (45 years ago)
Launch vehicle
Unknown
Launch site
Plesetsk Missile And Space Complex (PKMTR)
Object type
Payload
Rocket body
Debris
Shape & HBR
Unknown shape, 0.1 m
Radar Cross Section
Small (<0.1 m²)

Expand to show TLE details & history
Last TLE update: 7 hours ago

TLE from 7 hours ago
0 COSMOS 1275 DEB
1 14740U 81053JV  26072.92139696  .00001951  00000-0  15868-2 0  9991
2 14740  83.1327  50.5787 0099012 313.7301  74.4016 13.87203927104709
Epoch: 2026-03-13T22:06Z
TLE epoch observation values (Epoch: 2026-03-13T22:06:48.697Z)
Latitude
29.04464°
Longitude
-88.85947°
Altitude
923.247 km
Speed
7.402 km/s
True Right ascension
03h 37m 34s
True Declination
28° 54' 08"
Sunlit
Object was in daylight at epoch
Visualization orbit readout
Latitude
Unknown
Longitude
Unknown
Altitude
Unknown
Speed
Unknown
Apparent Right ascension
Unknown
Apparent Declination
Unknown
Sunlit
N/A
Visualization observer readout
Local Sidereal Time
09:26:04
Azimuth
Unknown
Elevation
Unknown
Doppler factor
Unknown
Orbital elements
Apogee altitude
1,007.985 km
Perigee altitude
863.156 km
Semi-major axis
7,313.707 km
Eccentricity
0.0099
Inclination
83.1327°
RAAN
50.5787°
Arg. of periapsis
313.7301°
True anomaly
75.49799°
Mean anomaly
74.4016°
Eccentric anomaly
74.94944°
Mean motion
3.47006 °/min
Orbital period
103.74 mins
BSTAR
0.0015868
Loading maneuver chart data...
Computing Atmospheric mass density...
Loading historical data...
Loading historical data...
Loading historical data...
Loading historical data...
Loading historical data...
Loading historical data...
Loading historical data...

Documentation

Showing up to 5 results
|